CGAER CYXU-CYXU

Flight info

Callsign CGAER
Flight time 0h 9m
Altitude 1900
Route VFR CIRCUIT
Aircraft C152

Departure

Time 2026-05-06 23:13
Airport London International Airport (CYXU)

Arrival

Time 2026-05-06 23:23
Airport London International Airport (CYXU)
Time Latitude Longitude Altitude Speed Heading
2026-05-06 23:06 43.03173 -81.15291 903 ft 0 kts 313°
2026-05-06 23:07 43.03176 -81.15296 903 ft 0 kts 310°
2026-05-06 23:07 43.03203 -81.15289 903 ft 6 kts 45°
2026-05-06 23:07 43.03250 -81.15209 903 ft 16 kts 42°
2026-05-06 23:08 43.03238 -81.15131 903 ft 11 kts 138°
2026-05-06 23:08 43.03145 -81.15022 902 ft 28 kts 142°
2026-05-06 23:08 43.03034 -81.14882 902 ft 16 kts 140°
2026-05-06 23:08 43.02942 -81.14771 902 ft 20 kts 130°
2026-05-06 23:09 43.02835 -81.14648 903 ft 19 kts 135°
2026-05-06 23:09 43.02733 -81.14526 903 ft 19 kts 137°
2026-05-06 23:09 43.02631 -81.14401 903 ft 20 kts 140°
2026-05-06 23:09 43.02508 -81.14258 903 ft 24 kts 137°
2026-05-06 23:10 43.02394 -81.14117 902 ft 21 kts 143°
2026-05-06 23:10 43.02308 -81.13994 902 ft 12 kts 107°
2026-05-06 23:10 43.02339 -81.13933 902 ft 5 kts 49°
2026-05-06 23:10 43.02352 -81.13912 902 ft 0 kts 34°
2026-05-06 23:12 43.02358 -81.13905 901 ft 6 kts 53°
2026-05-06 23:12 43.02421 -81.13844 901 ft 12 kts 339°
2026-05-06 23:12 43.02456 -81.13878 901 ft 7 kts 321°
2026-05-06 23:13 43.02646 -81.14101 907 ft 60 kts 316°
2026-05-06 23:13 43.02973 -81.14433 1167 ft 51 kts 318°
2026-05-06 23:13 43.03266 -81.14707 1415 ft 56 kts 321°
2026-05-06 23:13 43.03585 -81.15082 1607 ft 62 kts 318°
2026-05-06 23:14 43.03913 -81.15502 1837 ft 68 kts 318°
2026-05-06 23:14 43.04271 -81.15998 1959 ft 82 kts 317°
2026-05-06 23:14 43.04730 -81.16575 1983 ft 91 kts 339°
2026-05-06 23:14 43.05369 -81.16479 1996 ft 103 kts 26°
2026-05-06 23:15 43.05861 -81.15712 1960 ft 108 kts 49°
2026-05-06 23:15 43.06240 -81.14861 2037 ft 107 kts 55°
2026-05-06 23:15 43.06188 -81.13873 2086 ft 119 kts 126°
2026-05-06 23:15 43.05495 -81.13193 2111 ft 120 kts 152°
2026-05-06 23:16 43.04755 -81.12651 2099 ft 122 kts 151°
2026-05-06 23:16 43.03989 -81.12087 2065 ft 125 kts 152°
2026-05-06 23:16 43.03266 -81.11478 2120 ft 121 kts 139°
2026-05-06 23:16 43.02820 -81.10604 2200 ft 114 kts 90°
2026-05-06 23:17 43.03196 -81.09767 2164 ft 106 kts 19°
2026-05-06 23:17 43.03869 -81.09974 2064 ft 105 kts 314°
2026-05-06 23:17 43.03991 -81.10976 1942 ft 114 kts 249°
2026-05-06 23:17 43.03336 -81.11463 2024 ft 117 kts 173°
2026-05-06 23:18 43.02644 -81.10936 2114 ft 120 kts 143°
2026-05-06 23:18 43.01955 -81.10194 2044 ft 127 kts 139°
2026-05-06 23:18 43.01315 -81.09476 2025 ft 107 kts 137°
2026-05-06 23:18 43.00970 -81.08744 2074 ft 97 kts 83°
2026-05-06 23:19 43.01367 -81.08034 2003 ft 99 kts 16°
2026-05-06 23:19 43.01981 -81.08306 1992 ft 104 kts 313°
2026-05-06 23:19 43.01987 -81.09282 1951 ft 117 kts 245°
2026-05-06 23:19 43.01297 -81.09804 2025 ft 121 kts 180°
2026-05-06 23:20 43.00518 -81.09360 2024 ft 123 kts 148°
2026-05-06 23:20 42.99881 -81.08657 2099 ft 114 kts 130°
2026-05-06 23:20 42.99349 -81.07819 2097 ft 120 kts 124°
2026-05-06 23:20 42.98789 -81.07018 2241 ft 114 kts 150°
2026-05-06 23:21 42.98106 -81.07007 2213 ft 87 kts 213°
2026-05-06 23:21 42.97663 -81.07478 2120 ft 73 kts 241°
2026-05-06 23:21 42.97647 -81.08059 2031 ft 60 kts 310°
2026-05-06 23:21 42.97917 -81.08450 1960 ft 56 kts 322°
2026-05-06 23:22 42.98211 -81.08806 1913 ft 57 kts 323°
2026-05-06 23:22 42.98515 -81.09166 1930 ft 59 kts 325°
2026-05-06 23:22 42.98835 -81.09527 1895 ft 62 kts 322°
2026-05-06 23:22 42.99161 -81.09906 1874 ft 60 kts 325°
2026-05-06 23:23 42.99488 -81.10258 1770 ft 59 kts 322°
2026-05-06 23:23 42.99801 -81.10605 1712 ft 56 kts 322°
2026-05-06 23:23 43.00073 -81.10949 1614 ft 49 kts 317°
2026-05-06 23:23 43.00317 -81.11269 1485 ft 51 kts 319°
2026-05-06 23:24 43.00581 -81.11598 1402 ft 52 kts 320°
2026-05-06 23:24 43.00848 -81.11911 1342 ft 49 kts 319°
2026-05-06 23:24 43.01119 -81.12228 1255 ft 50 kts 316°
2026-05-06 23:24 43.01369 -81.12526 1217 ft 45 kts 317°
2026-05-06 23:25 43.01612 -81.12794 1163 ft 44 kts 314°
2026-05-06 23:25 43.01767 -81.12975 1120 ft 44 kts 316°
2026-05-06 23:25 43.02003 -81.13280 1067 ft 47 kts 310°
2026-05-06 23:25 43.02239 -81.13592 986 ft 47 kts 311°
2026-05-06 23:26 43.02479 -81.13887 932 ft 45 kts 312°
2026-05-06 23:26 43.02688 -81.14144 905 ft 32 kts 311°
2026-05-06 23:26 43.02897 -81.14391 961 ft 48 kts 314°
2026-05-06 23:26 43.03200 -81.14708 1079 ft 66 kts 316°
2026-05-06 23:27 43.03559 -81.15171 1277 ft 71 kts 316°
2026-05-06 23:27 43.03879 -81.15569 1587 ft 66 kts 321°
2026-05-06 23:27 43.04247 -81.16000 1767 ft 75 kts 319°
2026-05-06 23:27 43.04649 -81.16474 1987 ft 75 kts 328°
2026-05-06 23:28 43.05149 -81.16448 2218 ft 81 kts 29°
2026-05-06 23:28 43.05515 -81.15773 2357 ft 92 kts 52°
2026-05-06 23:28 43.05838 -81.14978 2344 ft 106 kts 53°
2026-05-06 23:28 43.06238 -81.14075 2285 ft 113 kts 59°
2026-05-06 23:29 43.05912 -81.13185 2275 ft 123 kts 137°
2026-05-06 23:29 43.05219 -81.12423 2185 ft 129 kts 143°
2026-05-06 23:29 43.04502 -81.11747 2237 ft 122 kts 145°
2026-05-06 23:29 43.03806 -81.11144 2345 ft 115 kts 150°
2026-05-06 23:30 43.03104 -81.10577 2294 ft 121 kts 150°
2026-05-06 23:30 43.02359 -81.10037 2275 ft 121 kts 152°
2026-05-06 23:30 43.01612 -81.09500 2285 ft 122 kts 148°
2026-05-06 23:30 43.00875 -81.08907 2218 ft 126 kts 149°
2026-05-06 23:31 43.00110 -81.08277 2172 ft 129 kts 147°
2026-05-06 23:31 42.99352 -81.07651 2040 ft 125 kts 148°
2026-05-06 23:31 42.98625 -81.07095 1994 ft 107 kts 156°
2026-05-06 23:31 42.98007 -81.07193 1942 ft 86 kts 224°
2026-05-06 23:32 42.97594 -81.07726 1903 ft 76 kts 250°
2026-05-06 23:32 42.97707 -81.08317 1862 ft 64 kts 324°
2026-05-06 23:32 42.98051 -81.08614 1829 ft 56 kts 331°
2026-05-06 23:32 42.98345 -81.08960 1810 ft 56 kts 317°
2026-05-06 23:33 42.98618 -81.09322 1736 ft 55 kts 321°
2026-05-06 23:33 42.98904 -81.09641 1671 ft 53 kts 323°
2026-05-06 23:33 42.99185 -81.09938 1595 ft 49 kts 319°
2026-05-06 23:33 42.99484 -81.10078 1627 ft 57 kts 27°
2026-05-06 23:34 42.99558 -81.09498 1744 ft 68 kts 69°
2026-05-06 23:34 42.99751 -81.08945 1907 ft 62 kts 49°
2026-05-06 23:34 42.99983 -81.08403 2016 ft 69 kts 54°
2026-05-06 23:34 42.99839 -81.07726 2118 ft 90 kts 140°
2026-05-06 23:35 42.99333 -81.07188 2206 ft 94 kts 135°
2026-05-06 23:35 42.98788 -81.06679 2276 ft 102 kts 175°
2026-05-06 23:35 42.98192 -81.07114 2326 ft 98 kts 228°
2026-05-06 23:35 42.97725 -81.07767 2397 ft 91 kts 251°
2026-05-06 23:36 42.97823 -81.08526 2288 ft 88 kts 321°
2026-05-06 23:36 42.98305 -81.08991 2112 ft 80 kts 331°
2026-05-06 23:36 42.98764 -81.09396 1954 ft 77 kts 324°
2026-05-06 23:36 42.99120 -81.09844 1891 ft 63 kts 320°
2026-05-06 23:37 42.99423 -81.10209 1811 ft 53 kts 320°
2026-05-06 23:37 42.99708 -81.10526 1705 ft 52 kts 321°
2026-05-06 23:37 42.99956 -81.10825 1628 ft 45 kts 319°
2026-05-06 23:37 43.00196 -81.11095 1523 ft 47 kts 324°
2026-05-06 23:38 43.00446 -81.11402 1438 ft 47 kts 315°
2026-05-06 23:38 43.00676 -81.11671 1377 ft 44 kts 315°
2026-05-06 23:38 43.00993 -81.11908 1409 ft 65 kts 354°
2026-05-06 23:38 43.01417 -81.11477 1553 ft 87 kts 43°
2026-05-06 23:39 43.01800 -81.10817 1821 ft 87 kts 49°
2026-05-06 23:39 43.01985 -81.10070 2041 ft 98 kts 95°
2026-05-06 23:39 43.01581 -81.09290 2200 ft 105 kts 149°
2026-05-06 23:39 43.00885 -81.09384 2226 ft 110 kts 230°
2026-05-06 23:40 43.00603 -81.10338 1951 ft 103 kts 269°
2026-05-06 23:40 43.00664 -81.11234 1596 ft 89 kts 297°
2026-05-06 23:40 43.00883 -81.11872 1380 ft 55 kts 303°
2026-05-06 23:40 43.01121 -81.12263 1242 ft 53 kts 316°
2026-05-06 23:41 43.01406 -81.12566 1211 ft 51 kts 317°
2026-05-06 23:41 43.01676 -81.12890 1164 ft 54 kts 314°
2026-05-06 23:41 43.01945 -81.13232 1064 ft 51 kts 315°
2026-05-06 23:41 43.02202 -81.13544 992 ft 48 kts 313°
2026-05-06 23:42 43.02459 -81.13860 931 ft 51 kts 313°
2026-05-06 23:42 43.02700 -81.14167 903 ft 43 kts 316°
2026-05-06 23:42 43.02979 -81.14481 1017 ft 60 kts 316°
2026-05-06 23:42 43.03303 -81.14827 1232 ft 60 kts 319°
2026-05-06 23:43 43.03642 -81.15155 1469 ft 59 kts 324°
2026-05-06 23:43 43.04007 -81.15445 1700 ft 62 kts 333°
2026-05-06 23:43 43.04444 -81.15433 1926 ft 71 kts 21°
2026-05-06 23:43 43.04796 -81.14968 2161 ft 71 kts 46°
2026-05-06 23:44 43.05121 -81.14424 2342 ft 75 kts 45°
2026-05-06 23:44 43.05445 -81.13852 2515 ft 78 kts 46°
2026-05-06 23:44 43.05779 -81.13260 2765 ft 81 kts 45°
2026-05-06 23:44 43.06144 -81.12620 2894 ft 90 kts 46°
2026-05-06 23:45 43.06555 -81.11911 2951 ft 100 kts 44°
2026-05-06 23:45 43.07008 -81.11150 2981 ft 105 kts 45°
2026-05-06 23:45 43.07477 -81.10366 2990 ft 107 kts 45°
2026-05-06 23:45 43.07953 -81.09562 2990 ft 110 kts 46°
2026-05-06 23:46 43.08436 -81.08766 2998 ft 109 kts 44°
2026-05-06 23:46 43.08868 -81.07912 2999 ft 114 kts 68°
2026-05-06 23:46 43.09050 -81.06853 3006 ft 115 kts 72°
2026-05-06 23:46 43.09244 -81.05785 3006 ft 116 kts 70°
2026-05-06 23:47 43.09421 -81.04700 3004 ft 116 kts 70°
2026-05-06 23:47 43.09604 -81.03629 3001 ft 115 kts 71°
2026-05-06 23:47 43.09794 -81.02571 3000 ft 114 kts 71°
2026-05-06 23:47 43.09975 -81.01505 3001 ft 115 kts 73°
2026-05-06 23:48 43.10160 -81.00448 3025 ft 114 kts 71°
2026-05-06 23:48 43.10341 -80.99421 3155 ft 107 kts 72°
2026-05-06 23:48 43.10508 -80.98446 3303 ft 103 kts 72°
2026-05-06 23:48 43.10666 -80.97511 3473 ft 102 kts 71°
2026-05-06 23:49 43.10822 -80.96548 3620 ft 103 kts 71°
2026-05-06 23:49 43.10974 -80.95588 3771 ft 104 kts 71°
2026-05-06 23:49 43.11123 -80.94619 3933 ft 104 kts 71°
2026-05-06 23:49 43.11268 -80.93642 4093 ft 105 kts 71°
2026-05-06 23:50 43.11413 -80.92670 4246 ft 106 kts 71°
2026-05-06 23:50 43.11704 -80.90652 4587 ft 110 kts 71°
2026-05-06 23:50 43.11836 -80.89617 4754 ft 111 kts 71°
2026-05-06 23:51 43.11968 -80.88563 4891 ft 114 kts 71°
2026-05-06 23:51 43.12110 -80.87483 4959 ft 120 kts 71°
2026-05-06 23:51 43.12267 -80.86340 4982 ft 124 kts 71°
2026-05-06 23:51 43.12429 -80.85167 4992 ft 127 kts 71°
2026-05-06 23:52 43.12592 -80.83974 4998 ft 128 kts 71°
2026-05-06 23:52 43.12760 -80.82771 5005 ft 129 kts 71°
2026-05-06 23:52 43.12934 -80.81561 5003 ft 130 kts 71°
2026-05-06 23:52 43.13135 -80.80356 4990 ft 124 kts 57°
2026-05-06 23:53 43.13631 -80.79501 4988 ft 115 kts 37°
2026-05-06 23:53 43.14156 -80.78680 4989 ft 114 kts 37°
2026-05-06 23:53 43.14673 -80.77851 5000 ft 115 kts 38°
2026-05-06 23:53 43.15191 -80.77009 4997 ft 116 kts 38°
2026-05-06 23:54 43.15707 -80.76166 4991 ft 115 kts 38°
2026-05-06 23:54 43.16218 -80.75322 4996 ft 115 kts 38°
2026-05-06 23:54 43.16731 -80.74474 5000 ft 116 kts 38°
2026-05-06 23:54 43.17250 -80.73622 5002 ft 117 kts 38°
2026-05-06 23:55 43.17774 -80.72773 5008 ft 117 kts 38°
2026-05-06 23:55 43.18296 -80.71921 4997 ft 117 kts 38°
2026-05-06 23:55 43.18816 -80.71067 5000 ft 117 kts 38°
2026-05-06 23:55 43.19339 -80.70214 5006 ft 117 kts 38°
2026-05-06 23:56 43.19861 -80.69370 4995 ft 116 kts 38°
2026-05-06 23:56 43.20387 -80.68523 4996 ft 117 kts 38°
2026-05-06 23:56 43.20915 -80.67677 5000 ft 117 kts 38°
2026-05-06 23:56 43.21443 -80.66834 4997 ft 117 kts 38°
2026-05-06 23:57 43.21970 -80.65989 4998 ft 117 kts 38°
2026-05-06 23:57 43.22497 -80.65143 5001 ft 117 kts 38°
2026-05-06 23:57 43.23026 -80.64295 5002 ft 117 kts 38°
2026-05-06 23:57 43.23559 -80.63446 5003 ft 118 kts 38°
2026-05-06 23:58 43.24093 -80.62596 5005 ft 118 kts 37°
2026-05-06 23:58 43.24624 -80.61744 4998 ft 117 kts 37°
2026-05-06 23:58 43.25154 -80.60890 4992 ft 118 kts 37°
2026-05-06 23:58 43.25684 -80.60035 4994 ft 118 kts 37°
2026-05-06 23:59 43.26215 -80.59178 5000 ft 119 kts 37°
2026-05-06 23:59 43.26753 -80.58311 4993 ft 119 kts 37°
2026-05-06 23:59 43.27288 -80.57449 4986 ft 118 kts 37°
2026-05-06 23:59 43.27818 -80.56598 4989 ft 117 kts 37°
2026-05-07 00:00 43.28349 -80.55748 4991 ft 118 kts 37°
2026-05-07 00:00 43.28883 -80.54890 4989 ft 118 kts 37°
2026-05-07 00:00 43.29419 -80.54029 4992 ft 119 kts 37°
2026-05-07 00:00 43.29773 -80.53459 4987 ft 117 kts 37°
2026-05-07 00:01 43.30522 -80.52446 4990 ft 112 kts 30°
2026-05-07 00:01 43.30869 -80.51416 4923 ft 130 kts 67°
2026-05-07 00:01 43.31264 -80.50363 4751 ft 124 kts 37°
2026-05-07 00:01 43.31832 -80.49465 4547 ft 124 kts 38°
2026-05-07 00:02 43.32414 -80.48589 4360 ft 124 kts 37°
2026-05-07 00:02 43.33004 -80.47723 4170 ft 124 kts 37°
2026-05-07 00:02 43.33591 -80.46879 3937 ft 117 kts 37°
2026-05-07 00:02 43.34155 -80.46084 3690 ft 115 kts 38°
2026-05-07 00:03 43.34716 -80.45312 3453 ft 113 kts 37°
2026-05-07 00:03 43.35266 -80.44554 3219 ft 111 kts 38°
2026-05-07 00:03 43.35825 -80.43812 2985 ft 112 kts 38°
2026-05-07 00:03 43.36393 -80.43072 2749 ft 112 kts 34°
2026-05-07 00:04 43.36976 -80.42372 2517 ft 111 kts 36°
2026-05-07 00:04 43.37565 -80.41679 2279 ft 111 kts 33°
2026-05-07 00:04 43.38149 -80.41008 2123 ft 107 kts 33°
2026-05-07 00:04 43.38713 -80.40382 2038 ft 101 kts 31°
2026-05-07 00:05 43.39226 -80.39786 2001 ft 95 kts 31°
2026-05-07 00:05 43.39711 -80.39206 1982 ft 90 kts 29°
2026-05-07 00:05 43.40178 -80.38648 1979 ft 88 kts 34°
2026-05-07 00:05 43.40634 -80.38101 1987 ft 87 kts 33°
2026-05-07 00:06 43.41094 -80.37563 1988 ft 86 kts 33°
2026-05-07 00:06 43.41551 -80.37023 1988 ft 87 kts 32°
2026-05-07 00:06 43.41998 -80.36466 1987 ft 87 kts 33°
2026-05-07 00:06 43.42452 -80.35915 1985 ft 87 kts 33°
2026-05-07 00:07 43.42914 -80.35369 1985 ft 88 kts 33°
2026-05-07 00:07 43.43471 -80.35141 1729 ft 90 kts 338°
2026-05-07 00:07 43.44003 -80.35390 1566 ft 73 kts 329°
2026-05-07 00:07 43.44327 -80.35812 1417 ft 53 kts 308°
2026-05-07 00:08 43.44545 -80.36159 1340 ft 43 kts 316°